Weather History for Paynesville, MN

Change the Weather History Date:

Thursday, March 27, 2014

  Actual Average (KLJF) Record (KLJF)
Temperature  
Mean Temperature 36 °F -  
Max Temperature 41 °F 46 °F 65 °F (1968)
Min Temperature 30 °F 26 °F 2 °F (1964)
Degree Days  
Heating Degree Days 30    
Moisture  
Dew Point 32 °F    
Average Humidity 90    
Maximum Humidity 100    
Minimum Humidity 69    
Precipitation  
Precipitation 0.30 in - - ()
Sea Level Pressure  
Sea Level Pressure 29.53 in    
Wind  
Wind Speed 7 mph (NNE)    
Max Wind Speed 14 mph    
Max Gust Speed 23 mph    
Visibility 5 miles    
Events Fog , Rain , Snow    
Averages and records for this station are not official NWS values.
T = Trace of Precipitation, MM = Missing Value Source: NWS Daily Summary

Daily Weather History Graph

Daily Weather History Graph

Search for Another Location

Airport:

Trip Planner

Search our weather history database for the weather conditions in past years. The results will help you decide how hot, cold, wet, or windy it might be!

Date:

Astronomy

Mar. 27, 2014 Rise Set
Actual Time 7:08 AM CDT 7:40 PM CDT
Civil Twilight 6:39 AM CDT 8:10 PM CDT
Nautical Twilight 6:04 AM CDT 8:45 PM CDT
Astronomical Twilight 5:27 AM CDT 9:22 PM CDT
Moon 5:09 AM CDT (3/27) 4:20 PM CDT (3/27)
Length of Visible Light 13h 31m
Length of Day
12h 31m
Waning Crescent, 13% of the Moon is Illuminated
Mar 27
Waning Crescent
Mar 30
New
Apr 7
First Quarter
Apr 15
Full
Apr 22
Last Quarter

Hourly Weather History & Observations

Time (CDT) Temp. Windchill Dew Point Humidity Pressure Visibility Wind Dir Wind Speed Gust Speed Precip Events Conditions
12:12 AM 39.2 °F 31.2 °F 29.7 °F 69% 29.47 in 10.0 mi SE 13.8 mph 17.3 mph N/A   Overcast
12:32 AM 39.6 °F 31.7 °F 30.7 °F 71% 29.47 in 10.0 mi SE 13.8 mph - N/A   Overcast
12:52 AM 39.4 °F 32.3 °F 31.1 °F 72% 29.47 in 10.0 mi SE 11.5 mph - N/A   Overcast
1:12 AM 39.7 °F 37.6 °F 32.0 °F 74% 29.47 in 10.0 mi SSE 3.5 mph - N/A   Overcast
1:32 AM 40.3 °F 34.9 °F 34.0 °F 78% 29.47 in 10.0 mi South 8.1 mph - N/A   Overcast
1:52 AM 41.9 °F 36.9 °F 36.7 °F 82% 29.47 in 10.0 mi South 8.1 mph - N/A   Overcast
2:12 AM 41.0 °F 35.8 °F 36.3 °F 83% 29.47 in 10.0 mi SSE 8.1 mph - N/A   Overcast
2:32 AM 41.0 °F 36.4 °F 36.5 °F 84% 29.47 in 10.0 mi SE 6.9 mph - N/A   Overcast
2:52 AM 40.3 °F - 35.8 °F 84% 29.47 in 10.0 mi Calm Calm - N/A   Overcast
3:12 AM 40.1 °F 35.3 °F 36.0 °F 85% 29.47 in 10.0 mi SE 6.9 mph - N/A   Overcast
3:32 AM 40.8 °F - 36.7 °F 85% 29.47 in 10.0 mi Calm Calm - N/A   Overcast
3:52 AM 40.1 °F 36.9 °F 36.5 °F 87% 29.46 in 10.0 mi SE 4.6 mph - N/A   Overcast
4:12 AM 39.7 °F 37.6 °F 36.5 °F 88% 29.46 in 10.0 mi SE 3.5 mph - N/A   Overcast
4:33 AM 39.2 °F - 36.5 °F 90% 29.45 in 5.0 mi Calm Calm - N/A   Overcast
4:52 AM 39.0 °F 34.8 °F 37.0 °F 93% 29.45 in 4.0 mi SSE 5.8 mph - N/A   Drizzle
5:12 AM 38.8 °F - 37.4 °F 95% 29.45 in 3.0 mi Calm Calm - N/A Rain Light Rain
5:33 AM 38.8 °F 35.4 °F 37.8 °F 96% 29.45 in 3.0 mi SSE 4.6 mph - N/A Rain Rain
5:52 AM 38.8 °F - 37.9 °F 97% 29.45 in 2.5 mi Calm Calm - N/A Rain Light Rain
6:12 AM 38.5 °F - 37.6 °F 97% 29.45 in 2.5 mi Calm Calm - N/A   Light Drizzle
6:32 AM 38.3 °F - 37.4 °F 97% 29.45 in 2.5 mi Calm Calm - N/A Rain Light Rain
6:52 AM 38.3 °F - 37.6 °F 97% 29.46 in 2.5 mi Calm Calm - N/A   Overcast
7:12 AM 38.3 °F - 37.4 °F 97% 29.45 in 2.0 mi Calm Calm - N/A   Overcast
7:32 AM 37.8 °F - 37.2 °F 98% 29.46 in 2.5 mi Calm Calm - N/A   Overcast
7:52 AM 37.6 °F - 37.0 °F 98% 29.46 in 1.2 mi Calm Calm - N/A   Overcast
8:12 AM 37.4 °F - 36.9 °F 98% 29.45 in 0.8 mi Calm Calm - N/A   Overcast
8:32 AM 37.4 °F - 36.5 °F 97% 29.44 in 0.5 mi Calm Calm - N/A Fog Fog
8:52 AM 37.0 °F - 36.5 °F 98% 29.45 in 0.8 mi Calm Calm - N/A   Overcast
9:12 AM 37.0 °F - 36.5 °F 98% 29.45 in 0.5 mi Calm Calm - N/A Fog Fog
9:32 AM 36.9 °F - 36.5 °F 99% 29.45 in 0.8 mi Calm Calm - N/A Rain Light Rain
9:52 AM 36.9 °F - 36.5 °F 99% 29.45 in 1.2 mi Calm Calm - N/A   Drizzle
10:12 AM 36.9 °F - 36.5 °F 99% 29.45 in 1.2 mi Calm Calm - N/A Rain Rain
10:32 AM 37.0 °F - 36.7 °F 99% 29.46 in 1.5 mi Calm Calm - 0.03 in Rain Rain
10:52 AM 37.0 °F - 36.7 °F 99% 29.46 in 2.5 mi Calm Calm - 0.04 in Rain Rain
11:12 AM 37.4 °F - 36.9 °F 98% 29.46 in 2.5 mi Calm Calm - 0.03 in Rain Rain
11:32 AM 36.9 °F - 36.5 °F 99% 29.47 in 3.0 mi Calm Calm - 0.05 in Rain Rain
11:53 AM 36.5 °F 31.8 °F 36.1 °F 99% 29.47 in 2.0 mi North 5.8 mph - 0.08 in Rain Rain
12:12 PM 34.9 °F 26.2 °F 34.3 °F 98% 29.47 in 4.0 mi North 12.7 mph - N/A Rain Rain
12:32 PM 32.9 °F 25.9 °F 32.2 °F 97% 29.48 in 1.2 mi North 8.1 mph - 0.06 in Snow Light Snow
12:53 PM 32.2 °F 24.4 °F 32.0 °F 99% 29.48 in 0.8 mi North 9.2 mph 16.1 mph 0.12 in Snow Light Snow
1:12 PM 32.0 °F 22.5 °F 32.0 °F 100% 29.48 in 0.8 mi North 12.7 mph 16.1 mph N/A Snow Light Snow
1:32 PM 32.0 °F 22.5 °F 31.6 °F 99% 29.48 in 1.0 mi North 12.7 mph 18.4 mph N/A Snow Light Snow
1:52 PM 31.8 °F 24.6 °F 31.1 °F 97% 29.49 in 0.5 mi North 8.1 mph 19.6 mph 0.02 in Snow Snow
2:12 PM 31.5 °F 22.9 °F 30.9 °F 98% 29.49 in 0.5 mi NNE 10.4 mph - 0.01 in Snow Light Snow
2:32 PM 31.1 °F 22.4 °F 30.7 °F 99% 29.50 in 0.8 mi North 10.4 mph 16.1 mph 0.01 in Snow Light Snow
2:52 PM 31.1 °F 22.4 °F 30.6 °F 98% 29.51 in 0.5 mi NNE 10.4 mph 17.3 mph 0.03 in Snow Light Snow
3:13 PM 30.9 °F 23.5 °F 30.2 °F 97% 29.52 in 0.8 mi North 8.1 mph - N/A Snow Light Snow
3:32 PM 30.7 °F 21.4 °F 29.7 °F 96% 29.52 in 0.8 mi North 11.5 mph - N/A Snow Light Snow
3:52 PM 30.7 °F 20.9 °F 29.3 °F 94% 29.52 in 1.0 mi North 12.7 mph 18.4 mph N/A Snow Light Snow
4:13 PM 30.9 °F 22.2 °F 29.3 °F 94% 29.53 in 1.5 mi North 10.4 mph 19.6 mph N/A Snow Light Snow
4:32 PM 30.6 °F 21.8 °F 29.1 °F 94% 29.54 in 1.2 mi North 10.4 mph 18.4 mph N/A Snow Light Snow
4:52 PM 30.6 °F 20.7 °F 28.8 °F 93% 29.55 in 2.5 mi North 12.7 mph 19.6 mph 0.01 in Snow Light Snow
5:12 PM 30.2 °F 20.2 °F 28.4 °F 93% 29.57 in 4.0 mi North 12.7 mph 20.7 mph N/A Snow Light Snow
5:33 PM 30.2 °F 20.2 °F 27.9 °F 91% 29.57 in 5.0 mi North 12.7 mph 18.4 mph N/A   Overcast
5:52 PM 30.2 °F 20.2 °F 27.5 °F 90% 29.58 in 5.0 mi North 12.7 mph 23.0 mph N/A   Overcast
6:12 PM 30.2 °F 19.8 °F 27.9 °F 91% 29.59 in 10.0 mi North 13.8 mph 19.6 mph N/A   Overcast
6:33 PM 30.7 °F 24.9 °F 28.0 °F 90% 29.60 in 10.0 mi North 5.8 mph 18.4 mph N/A   Overcast
6:51 PM 31.1 °F 21.4 °F 28.0 °F 88% 29.61 in 10.0 mi North 12.7 mph - N/A   Overcast
7:12 PM 31.1 °F 21.4 °F 27.5 °F 87% 29.62 in 10.0 mi North 12.7 mph 17.3 mph N/A   Overcast
7:32 PM 31.1 °F 21.4 °F 26.8 °F 84% 29.64 in 10.0 mi North 12.7 mph 20.7 mph N/A   Overcast
7:52 PM 31.1 °F 22.4 °F 26.8 °F 84% 29.65 in 10.0 mi North 10.4 mph 19.6 mph N/A   Overcast
8:12 PM 31.1 °F 23.1 °F 26.4 °F 83% 29.66 in 10.0 mi North 9.2 mph 18.4 mph N/A   Overcast
8:32 PM 31.1 °F 23.7 °F 26.2 °F 82% 29.69 in 10.0 mi North 8.1 mph 16.1 mph N/A   Overcast
8:52 PM 30.9 °F 22.8 °F 25.7 °F 81% 29.70 in 10.0 mi North 9.2 mph 16.1 mph N/A   Overcast
9:12 PM 30.9 °F 22.2 °F 25.5 °F 80% 29.71 in 10.0 mi North 10.4 mph 17.3 mph N/A   Overcast
9:33 PM 30.7 °F 23.3 °F 25.3 °F 80% 29.72 in 10.0 mi North 8.1 mph - N/A   Overcast
9:52 PM 30.4 °F 21.5 °F 24.4 °F 79% 29.73 in 10.0 mi North 10.4 mph 17.3 mph N/A   Overcast
10:12 PM 30.2 °F 21.9 °F 24.4 °F 79% 29.74 in 10.0 mi North 9.2 mph - N/A   Overcast
10:32 PM 30.2 °F - 24.4 °F 79% 29.76 in 10.0 mi Calm Calm - N/A   Overcast
10:52 PM 30.2 °F - 23.9 °F 77% 29.77 in 10.0 mi Calm Calm - N/A   Overcast
11:12 PM 30.2 °F 22.6 °F 24.3 °F 79% 29.79 in 10.0 mi North 8.1 mph - N/A   Overcast
11:32 PM 30.2 °F 26.7 °F 23.9 °F 77% 29.80 in 10.0 mi NNW 3.5 mph - N/A   Overcast
11:52 PM 30.0 °F 21.7 °F 23.9 °F 78% 29.80 in 10.0 mi NNW 9.2 mph - N/A   Overcast